When you browse on this site, cookies collect data to enhance your experience and personalize the content and advertising you see.
Visit our Privacy Policy to learn more. By continuing to use the site, you agree to this use of cookies and data.
  • In France
  • List of Countries
  • For 7 days
  • Water Temperature
  • Satellite Maps
  • Weather Map
  • Weather Widgets
  • user-avatar
    Login

    Hourly Weather Abovyan

    Today, 26 April, Friday

    Time Temperature Precipitation Wind Pressure Humidity
    00:00 +7°C° 0 mm 1 mps 676 mmHg 59%
    01:00 +7°C° 0 mm 1 mps 676 mmHg 61%
    02:00 +6°C° 0 mm 1 mps 676 mmHg 62%
    03:00 +6°C° 0 mm 2 mps 675 mmHg 61%
    04:00 +7°C° 0 mm 1 mps 675 mmHg 62%
    05:00 +7°C° 0 mm 1 mps 675 mmHg 62%
    06:00 +7°C° 0 mm 1 mps 676 mmHg 62%
    07:00 +8°C° 0 mm 1 mps 675 mmHg 56%
    08:00 +10°C° 0 mm 1 mps 675 mmHg 51%
    09:00 +12°C° 0 mm 1 mps 675 mmHg 44%
    10:00 +13°C° 0 mm 2 mps 675 mmHg 42%
    11:00 +14°C° 0 mm 2 mps 675 mmHg 40%
    12:00 +15°C° 0 mm 2 mps 675 mmHg 38%
    13:00 +15°C° 0 mm 2 mps 675 mmHg 37%
    14:00 +15°C° 0 mm 2 mps 674 mmHg 36%
    15:00 +16°C° 0 mm 2 mps 674 mmHg 35%
    16:00 +15°C° 0 mm 2 mps 674 mmHg 36%
    17:00 +15°C° 0 mm 1 mps 674 mmHg 37%
    18:00 +14°C° 0 mm 1 mps 674 mmHg 39%
    19:00 +12°C° 0 mm 1 mps 674 mmHg 42%
    20:00 +11°C° 0 mm 1 mps 674 mmHg 46%
    21:00 +8°C° 0 mm 0 mps 674 mmHg 49%
    22:00 +9°C° 0 mm 1 mps 674 mmHg 51%
    23:00 +8°C° 0 mm 1 mps 674 mmHg 52%

    Tomorrow, 27 April, Saturday

    Time Temperature Precipitation Wind Pressure Humidity
    00:00 +8°C° 0 mm 1 mps 674 mmHg 54%
    01:00 +8°C° 0 mm 1 mps 674 mmHg 55%
    02:00 +7°C° 0 mm 1 mps 674 mmHg 57%
    03:00 +7°C° 0 mm 1 mps 674 mmHg 58%
    04:00 +7°C° 0 mm 1 mps 674 mmHg 58%
    05:00 +7°C° 0 mm 1 mps 674 mmHg 59%
    06:00 +7°C° 0 mm 1 mps 674 mmHg 59%
    07:00 +9°C° 0 mm 1 mps 674 mmHg 52%
    08:00 +11°C° 0 mm 1 mps 674 mmHg 46%
    09:00 +13°C° 0 mm 1 mps 674 mmHg 39%
    10:00 +14°C° 0 mm 2 mps 673 mmHg 37%
    11:00 +15°C° 0 mm 2 mps 673 mmHg 34%
    12:00 +16°C° 0 mm 3 mps 673 mmHg 32%
    13:00 +16°C° 0 mm 3 mps 673 mmHg 31%
    14:00 +17°C° 0 mm 3 mps 673 mmHg 30%
    15:00 +17°C° 0 mm 3 mps 672 mmHg 29%
    16:00 +16°C° 0 mm 3 mps 672 mmHg 31%
    17:00 +16°C° 0 mm 2 mps 672 mmHg 33%
    18:00 +15°C° 0 mm 2 mps 671 mmHg 35%
    19:00 +13°C° 0 mm 1 mps 671 mmHg 37%
    20:00 +12°C° 0 mm 1 mps 671 mmHg 38%
    21:00 +10°C° 0 mm 1 mps 672 mmHg 40%
    22:00 +10°C° 0 mm 1 mps 672 mmHg 39%
    23:00 +10°C° 0 mm 1 mps 672 mmHg 39%

    Day after tomorrow, 28 April, Sunday

    Time Temperature Precipitation Wind Pressure Humidity
    00:00 +10°C° 0 mm 1 mps 672 mmHg 38%
    01:00 +9°C° 0 mm 1 mps 671 mmHg 38%
    02:00 +9°C° 0 mm 1 mps 671 mmHg 38%
    03:00 +8°C° 0 mm 1 mps 671 mmHg 38%
    04:00 +9°C° 0 mm 1 mps 671 mmHg 41%
    05:00 +9°C° 0 mm 1 mps 671 mmHg 43%
    06:00 +9°C° 0 mm 1 mps 671 mmHg 45%
    07:00 +10°C° 0 mm 2 mps 671 mmHg 42%
    08:00 +13°C° 0 mm 2 mps 671 mmHg 39%
    09:00 +14°C° 0 mm 2 mps 671 mmHg 36%
    10:00 +15°C° 0 mm 2 mps 671 mmHg 36%
    11:00 +16°C° 0 mm 3 mps 671 mmHg 36%
    12:00 +17°C° 0 mm 3 mps 671 mmHg 36%
    13:00 +17°C° 0.1 mm 3 mps 670 mmHg 37%
    14:00 +17°C° 0.1 mm 3 mps 670 mmHg 38%
    15:00 +17°C° 0.1 mm 3 mps 670 mmHg 39%
    16:00 +17°C° 0.1 mm 3 mps 670 mmHg 42%
    17:00 +16°C° 0.1 mm 3 mps 669 mmHg 44%
    18:00 +14°C° 0.1 mm 3 mps 669 mmHg 47%
    19:00 +14°C° 0.1 mm 2 mps 670 mmHg 49%
    20:00 +13°C° 0.1 mm 2 mps 670 mmHg 50%
    21:00 +12°C° 0.1 mm 1 mps 670 mmHg 52%
    22:00 +11°C° 0 mm 1 mps 670 mmHg 54%
    23:00 +11°C° 0 mm 1 mps 670 mmHg 56%

    29 April, Monday

    Time Temperature Precipitation Wind Pressure Humidity
    00:00 +10°C° 0 mm 1 mps 670 mmHg 58%
    01:00 +10°C° 0 mm 1 mps 670 mmHg 60%
    02:00 +10°C° 0 mm 1 mps 670 mmHg 62%
    03:00 +10°C° 0 mm 1 mps 670 mmHg 64%
    04:00 +10°C° 0 mm 1 mps 670 mmHg 64%
    05:00 +10°C° 0 mm 1 mps 670 mmHg 65%
    06:00 +10°C° 0 mm 1 mps 670 mmHg 66%
    07:00 +12°C° 0.1 mm 2 mps 670 mmHg 62%
    08:00 +14°C° 0.1 mm 2 mps 671 mmHg 58%
    09:00 +14°C° 0.1 mm 3 mps 671 mmHg 55%
    10:00 +16°C° 0.2 mm 3 mps 671 mmHg 52%
    11:00 +17°C° 0.2 mm 3 mps 671 mmHg 50%
    12:00 +18°C° 0.2 mm 3 mps 671 mmHg 48%
    13:00 +18°C° 0.4 mm 3 mps 670 mmHg 47%
    14:00 +19°C° 0.4 mm 3 mps 670 mmHg 45%
    15:00 +19°C° 0.4 mm 3 mps 670 mmHg 44%
    16:00 +18°C° 0.4 mm 3 mps 670 mmHg 46%
    17:00 +18°C° 0.4 mm 3 mps 670 mmHg 48%
    18:00 +17°C° 0.4 mm 3 mps 670 mmHg 50%
    19:00 +16°C° 0.4 mm 3 mps 670 mmHg 52%
    20:00 +15°C° 0.4 mm 2 mps 670 mmHg 54%
    21:00 +14°C° 0.4 mm 2 mps 671 mmHg 57%
    22:00 +13°C° 0.4 mm 2 mps 671 mmHg 58%
    23:00 +13°C° 0.4 mm 2 mps 670 mmHg 59%

    30 April, Tuesday

    Time Temperature Precipitation Wind Pressure Humidity
    00:00 +13°C° 0.4 mm 1 mps 670 mmHg 60%
    01:00 +12°C° 0.4 mm 1 mps 670 mmHg 61%
    02:00 +12°C° 0.4 mm 1 mps 670 mmHg 63%
    03:00 +12°C° 0.4 mm 1 mps 670 mmHg 65%
    04:00 +12°C° 0.1 mm 1 mps 670 mmHg 66%
    05:00 +12°C° 0.1 mm 1 mps 671 mmHg 67%
    06:00 +12°C° 0.1 mm 1 mps 671 mmHg 68%
    07:00 +13°C° 0.1 mm 2 mps 671 mmHg 63%
    08:00 +14°C° 0.1 mm 2 mps 671 mmHg 59%
    09:00 +16°C° 0.1 mm 2 mps 671 mmHg 54%
    10:00 +17°C° 0 mm 3 mps 671 mmHg 52%
    11:00 +18°C° 0 mm 3 mps 671 mmHg 49%
    12:00 +19°C° 0 mm 3 mps 671 mmHg 46%
    13:00 +19°C° 0.4 mm 3 mps 671 mmHg 45%
    14:00 +20°C° 0.4 mm 3 mps 671 mmHg 44%
    15:00 +21°C° 0.4 mm 3 mps 670 mmHg 42%
    16:00 +20°C° 0.9 mm 3 mps 670 mmHg 45%
    17:00 +19°C° 0.9 mm 4 mps 670 mmHg 47%
    18:00 +18°C° 0.9 mm 4 mps 670 mmHg 50%
    19:00 +17°C° 0.4 mm 3 mps 670 mmHg 51%
    20:00 +16°C° 0.4 mm 3 mps 670 mmHg 53%
    21:00 +15°C° 0.4 mm 2 mps 670 mmHg 54%
    22:00 +14°C° 0.4 mm 2 mps 671 mmHg 53%
    23:00 +14°C° 0.4 mm 2 mps 671 mmHg 53%

    1 May, Wednesday

    Time Temperature Precipitation Wind Pressure Humidity
    00:00 +14°C° 0.4 mm 2 mps 671 mmHg 52%
    01:00 +13°C° 0.3 mm 2 mps 671 mmHg 52%
    02:00 +13°C° 0.3 mm 2 mps 671 mmHg 53%
    03:00 +12°C° 0.3 mm 2 mps 670 mmHg 53%
    04:00 +12°C° 0.2 mm 2 mps 671 mmHg 54%
    05:00 +12°C° 0.2 mm 2 mps 671 mmHg 54%
    06:00 +12°C° 0.2 mm 2 mps 671 mmHg 55%
    07:00 +14°C° 0 mm 2 mps 671 mmHg 52%
    08:00 +16°C° 0 mm 3 mps 671 mmHg 49%
    09:00 +18°C° 0 mm 3 mps 671 mmHg 46%
    10:00 +19°C° 0 mm 3 mps 671 mmHg 43%
    11:00 +20°C° 0 mm 3 mps 671 mmHg 41%
    12:00 +21°C° 0 mm 3 mps 670 mmHg 38%
    13:00 +21°C° 0.2 mm 3 mps 670 mmHg 37%
    14:00 +22°C° 0.2 mm 4 mps 670 mmHg 36%
    15:00 +22°C° 0.2 mm 4 mps 670 mmHg 35%
    16:00 +21°C° 0.3 mm 4 mps 669 mmHg 38%
    17:00 +20°C° 0.3 mm 4 mps 669 mmHg 41%
    18:00 +19°C° 0.3 mm 4 mps 669 mmHg 44%
    19:00 +18°C° 0.3 mm 3 mps 669 mmHg 46%
    20:00 +17°C° 0.3 mm 3 mps 670 mmHg 48%
    21:00 +16°C° 0.3 mm 2 mps 670 mmHg 49%
    22:00 +15°C° 0.3 mm 2 mps 670 mmHg 50%
    23:00 +15°C° 0.3 mm 2 mps 670 mmHg 51%
    Show more